Location: Zagreb
(45.8000°N, 16.0000°E)
Time: 13:31:30
(UTC+02:00)

Envisat - Pass Details

Date: 30 January 2022
Orbit: 764 x 765 km, 98.2° (Epoch: 22 May)

Event Time Altitude Azimuth Distance (km) Brightness Sun altitude
Rises 17:26:08 0° 218° (SW) 3,218 7.3 -5.2°
Reaches altitude 10° 17:29:49 10° 246° (WSW) 2,298 7.3 -5.9°
Maximum altitude 17:32:03 13° 273° (W) 2,109 6.6 -6.2°
Drops below altitude 10° 17:34:18 10° 299° (WNW) 2,306 6.1 -6.6°
Sets 17:38:02 0° 328° (NNW) 3,239 6.4 -7.2°
